Location: ?
(35.3436°N, 139.3168°E)
Time: 09:28:29
(UTC+00:00)

X-37B - Pass Details

Date: 11 May 2021
Orbit: 386 x 389 km, 45.0° (Epoch: 10 June)

Event Time Altitude Azimuth Distance (km) Brightness Sun altitude
Rises 12:20:19 0° 303° (WNW) 2,271 5.6 -27.3°
Reaches altitude 10° 12:22:25 10° 307° (NW) 1,414 4.3 -27.6°
Enters shadow 12:23:18 17° 311° (NW) 1,062 3.6 -27.7°
